User: anonymous   Login
Location: Bonn
(50.7330°N, 7.1000°E)
Time: 05:31:55
(UTC+02:00)
Language:

Cosmos 1933 Rocket - Orbit

View from above orbital plane
View from above orbital plane
View from above satellite
View from above satellite

Ground track
Ground track

The orbit data is extracted from the following two-line orbital elements,

1 18959U 88020B   16152.81785829  .00000101  00000-0  94790-5 0  9999
2 18959  82.5385 267.1522 0015819 318.9797  41.0227 14.83278432524041
Epoch (UTC): 31 May 2016 19:37:42
Eccentricity: 0.0015819
inclination: 82.5385°
perigee height: 608 km
apogee height: 630 km
right ascension of ascending node: 267.1522°
argument of perigee: 318.9797°
revolutions per day: 14.83278432
mean anomaly at epoch: 41.0227°
orbit number at epoch: 52404

The dashed part of the orbit path shows where the satellite is in the earth's shadow,  

DLR